Location: Tr�vern
(48.0333°N, 4.6000°W)
Time: 08:42:48
(UTC+00:00)

ADEOS II - Pass Details

Date: 14 July 2020
Orbit: 799 x 801 km, 98.5° (Epoch: 04 August)

Event Time Altitude Azimuth Distance (km) Brightness Sun altitude
Rises 01:18:05 0° 29° (NNE) 3,320 6.7 -19.3°
Reaches altitude 10° 01:21:28 10° 52° (NE) 2,384 5.3 -19.2°
Maximum altitude 01:24:31 15° 88° (E) 2,021 4.4 -19.0°
Drops below altitude 10° 01:27:33 10° 124° (ESE) 2,373 4.4 -18.9°
Enters shadow 01:28:37 - 133° (SE) 2,627 4.5 -18.9°
